owner,sensor,date,latitude,longitude,vertical_datum,wind_speed,wind_to_direction,wind_speed_of_gust,qcFlag 
TABS,ioos:station:wmo:42046:1,2002-07-01T03:39:00Z,27.8903,-94.0367,4.0,3.930801445,58.7359205,7.7,'11111222,11111222,11111222' 
TABS,ioos:station:wmo:42046:1,2002-07-01T04:09:00Z,27.8903,-94.0367,4.0,5.127884554,65.33374979,8.6,'11111222,11111222,11111222' 
TABS,ioos:station:wmo:42046:1,2002-07-01T05:09:00Z,27.8903,-94.0367,4.0,6.036058316,85.81929075,9.24,'11111222,11111222,11111222' 
TABS,ioos:station:wmo:42046:1,2002-07-01T08:39:00Z,27.8903,-94.0367,4.0,6.178219808,99.12730594,9.45,'11111222,11111222,11111222' 
TABS,ioos:station:wmo:42046:1,2002-07-01T09:39:00Z,27.8903,-94.0367,4.0,5.557139552,104.9118789,8.37,'11111222,11111222,11111222' 
TABS,ioos:station:wmo:42046:1,2002-07-01T10:09:00Z,27.8903,-94.0367,4.0,5.917136132,101.8990252,8.09,'11111222,11111222,11111222' 
TABS,ioos:station:wmo:42046:1,2002-07-01T11:39:00Z,27.8903,-94.0367,4.0,6.183623533,95.01028426,7.99,'11111222,11111222,11111222' 
TABS,ioos:station:wmo:42046:1,2002-07-01T14:09:00Z,27.8903,-94.0367,4.0,6.476704409,103.0281607,8.58,'11111222,11111222,11111222' 
TABS,ioos:station:wmo:42046:1,2002-07-01T17:39:00Z,27.8903,-94.0367,4.0,6.592184767,111.817919,9.52,'11111222,11111222,11111222' 
TABS,ioos:station:wmo:42046:1,2002-07-01T18:39:00Z,27.8903,-94.0367,4.0,7.155396565,112.5155216,9.44,'11111222,11111222,11111222' 
TABS,ioos:station:wmo:42046:1,2002-07-01T19:39:00Z,27.8903,-94.0367,4.0,7.066321532,119.5038622,9.94,'11111222,11111222,11111222' 
TABS,ioos:station:wmo:42046:1,2002-07-01T20:09:00Z,27.8903,-94.0367,4.0,6.541085537,120.6035709,8.57,'11111222,11111222,11111222' 
TABS,ioos:station:wmo:42046:1,2002-07-01T21:39:00Z,27.8903,-94.0367,4.0,7.084772403,124.7671,9.29,'11111222,11111222,11111222' 
TABS,ioos:station:wmo:42046:1,2002-07-01T22:39:00Z,27.8903,-94.0367,4.0,7.006004568,126.935657,9.2,'11111222,11111222,11111222' 
TABS,ioos:station:wmo:42046:1,2002-07-02T02:09:00Z,27.8903,-94.0367,4.0,5.069516742,157.9889787,7.52,'11111222,11111222,11111222' 
TABS,ioos:station:wmo:42046:1,2002-07-02T05:09:00Z,27.8903,-94.0367,4.0,6.685843253,153.4352214,9.56,'11111222,11111222,11111222' 
TABS,ioos:station:wmo:42046:1,2002-07-02T06:39:00Z,27.8903,-94.0367,4.0,6.987882369,115.0618362,8.86,'11111222,11111222,11111222' 
TABS,ioos:station:wmo:42046:1,2002-07-02T11:09:00Z,27.8903,-94.0367,4.0,5.754042058,127.089297,8.74,'11111222,11111222,11111222' 
TABS,ioos:station:wmo:42046:1,2002-07-02T11:39:00Z,27.8903,-94.0367,4.0,6.293059669,129.5844113,9.14,'11111222,11111222,11111222' 
TABS,ioos:station:wmo:42046:1,2002-07-02T13:39:00Z,27.8903,-94.0367,4.0,6.626077271,126.5935275,9.62,'11111222,11111222,11111222' 
TABS,ioos:station:wmo:42046:1,2002-07-02T16:39:00Z,27.8903,-94.0367,4.0,7.189248918,112.7489732,9.03,'11111222,11111222,11111222' 
TABS,ioos:station:wmo:42046:1,2002-07-02T17:09:00Z,27.8903,-94.0367,4.0,7.33017053,108.5341974,9.6,'11111222,11111222,11111222' 
TABS,ioos:station:wmo:42046:1,2002-07-02T18:39:00Z,27.8903,-94.0367,4.0,7.171980201,122.1835603,9.37,'11111222,11111222,11111222' 
TABS,ioos:station:wmo:42046:1,2002-07-02T19:09:00Z,27.8903,-94.0367,4.0,7.613914893,118.9891757,9.77,'11111222,11111222,11111222' 
TABS,ioos:station:wmo:42046:1,2002-07-02T19:39:00Z,27.8903,-94.0367,4.0,7.591429378,115.1814002,9.7,'11111222,11111222,11111222' 
TABS,ioos:station:wmo:42046:1,2002-07-02T22:09:00Z,27.8903,-94.0367,4.0,7.810640179,129.2329616,10.04,'11111222,11111222,11111222' 
TABS,ioos:station:wmo:42046:1,2002-07-02T23:09:00Z,27.8903,-94.0367,4.0,7.541790238,138.9787568,9.91,'11111222,11111222,11111222' 
TABS,ioos:station:wmo:42046:1,2002-07-03T00:09:00Z,27.8903,-94.0367,4.0,7.581305956,138.6366441,9.94,'11111222,11111222,11111222' 
TABS,ioos:station:wmo:42046:1,2002-07-03T01:09:00Z,27.8903,-94.0367,4.0,7.596907265,133.5069128,9.91,'11111222,11111222,11111222' 
TABS,ioos:station:wmo:42046:1,2002-07-03T02:09:00Z,27.8903,-94.0367,4.0,7.321154281,129.7357574,9.53,'11111222,11111222,11111222' 
TABS,ioos:station:wmo:42046:1,2002-07-03T06:39:00Z,27.8903,-94.0367,4.0,5.859573363,155.9285674,9.24,'11111222,11111222,11111222' 
TABS,ioos:station:wmo:42046:1,2002-07-03T09:09:00Z,27.8903,-94.0367,4.0,6.717447432,123.5248158,9.6,'11111222,11111222,11111222' 
TABS,ioos:station:wmo:42046:1,2002-07-03T10:39:00Z,27.8903,-94.0367,4.0,6.532419154,137.4198192,9.51,'11111222,11111222,11111222' 
TABS,ioos:station:wmo:42046:1,2002-07-03T13:09:00Z,27.8903,-94.0367,4.0,6.2215834,137.5407772,9.33,'11111222,11111222,11111222' 
TABS,ioos:station:wmo:42046:1,2002-07-03T13:39:00Z,27.8903,-94.0367,4.0,6.315132619,134.1662835,9.41,'11111222,11111222,11111222' 
TABS,ioos:station:wmo:42046:1,2002-07-03T14:09:00Z,27.8903,-94.0367,4.0,5.975759366,135.8817176,9.04,'11111222,11111222,11111222' 
TABS,ioos:station:wmo:42046:1,2002-07-03T14:39:00Z,27.8903,-94.0367,4.0,5.810034423,132.6985629,9.23,'11111222,11111222,11111222' 
TABS,ioos:station:wmo:42046:1,2002-07-03T15:39:00Z,27.8903,-94.0367,4.0,5.49990909,123.4303707,8.23,'11111222,11111222,11111222' 
TABS,ioos:station:wmo:42046:1,2002-07-03T16:09:00Z,27.8903,-94.0367,4.0,5.524970588,123.2589747,8.61,'11111222,11111222,11111222' 
TABS,ioos:station:wmo:42046:1,2002-07-03T16:39:00Z,27.8903,-94.0367,4.0,5.118945204,151.5327439,7.76,'11111222,11111222,11111222' 
TABS,ioos:station:wmo:42046:1,2002-07-03T19:09:00Z,27.8903,-94.0367,4.0,7.64178644,119.8196305,10.5,'11111222,11111222,11111222' 
TABS,ioos:station:wmo:42046:1,2002-07-03T21:39:00Z,27.8903,-94.0367,4.0,7.118384648,127.4658667,9.47,'11111222,11111222,11111222' 
TABS,ioos:station:wmo:42046:1,2002-07-03T23:39:00Z,27.8903,-94.0367,4.0,7.467757361,121.7536138,10.0,'11111222,11111222,11111222' 
TABS,ioos:station:wmo:42046:1,2002-07-04T03:09:00Z,27.8903,-94.0367,4.0,7.435294211,118.081908,10.75,'11111222,11111222,11111222' 
TABS,ioos:station:wmo:42046:1,2002-07-04T03:39:00Z,27.8903,-94.0367,4.0,7.072382908,117.9060501,9.84,'11111222,11111222,11111222' 
TABS,ioos:station:wmo:42046:1,2002-07-04T04:39:00Z,27.8903,-94.0367,4.0,7.502912768,124.4105388,10.05,'11111222,11111222,11111222' 
TABS,ioos:station:wmo:42046:1,2002-07-04T05:09:00Z,27.8903,-94.0367,4.0,7.790025674,127.0173325,11.02,'11111222,11111222,11111222' 
TABS,ioos:station:wmo:42046:1,2002-07-04T05:39:00Z,27.8903,-94.0367,4.0,6.822213717,126.4167143,11.4,'11111222,11111222,11111222' 
TABS,ioos:station:wmo:42046:1,2002-07-04T08:39:00Z,27.8903,-94.0367,4.0,7.352557378,132.7405435,10.59,'11111222,11111222,11111222' 
TABS,ioos:station:wmo:42046:1,2002-07-04T09:39:00Z,27.8903,-94.0367,4.0,7.064347104,139.4781848,10.64,'11111222,11111222,11111222' 
TABS,ioos:station:wmo:42046:1,2002-07-04T10:09:00Z,27.8903,-94.0367,4.0,6.58484624,137.9548886,10.23,'11111222,11111222,11111222' 
TABS,ioos:station:wmo:42046:1,2002-07-04T11:09:00Z,27.8903,-94.0367,4.0,5.781020671,158.8062035,9.26,'11111222,11111222,11111222' 
TABS,ioos:station:wmo:42046:1,2002-07-04T11:39:00Z,27.8903,-94.0367,4.0,5.56493486,127.9204662,8.21,'11111222,11111222,11111222' 
TABS,ioos:station:wmo:42046:1,2002-07-04T13:09:00Z,27.8903,-94.0367,4.0,5.044858769,150.9456743,7.91,'11111222,11111222,11111222' 
TABS,ioos:station:wmo:42046:1,2002-07-04T17:09:00Z,27.8903,-94.0367,4.0,5.927596477,113.8843398,9.21,'11111222,11111222,11111222' 
TABS,ioos:station:wmo:42046:1,2002-07-04T18:39:00Z,27.8903,-94.0367,4.0,5.331913353,149.2023865,8.41,'11111222,11111222,11111222' 
TABS,ioos:station:wmo:42046:1,2002-07-04T19:09:00Z,27.8903,-94.0367,4.0,5.416714872,110.3088153,8.69,'11111222,11111222,11111222' 
TABS,ioos:station:wmo:42046:1,2002-07-04T21:09:00Z,27.8903,-94.0367,4.0,5.030188863,104.0366316,8.48,'11111222,11111222,11111222' 
TABS,ioos:station:wmo:42046:1,2002-07-04T22:09:00Z,27.8903,-94.0367,4.0,4.933254504,108.0680519,7.53,'11111222,11111222,11111222' 
TABS,ioos:station:wmo:42046:1,2002-07-04T23:09:00Z,27.8903,-94.0367,4.0,5.435485259,112.2715658,8.12,'11111222,11111222,11111222' 
TABS,ioos:station:wmo:42046:1,2002-07-04T23:39:00Z,27.8903,-94.0367,4.0,5.626944108,112.4635809,8.17,'11111222,11111222,11111222' 
TABS,ioos:station:wmo:42046:1,2002-07-05T02:09:00Z,27.8903,-94.0367,4.0,7.376537128,114.1679028,9.47,'11111222,11111222,11111222' 
TABS,ioos:station:wmo:42046:1,2002-07-05T05:09:00Z,27.8903,-94.0367,4.0,6.369843012,129.7137653,9.03,'11111222,11111222,11111222' 
TABS,ioos:station:wmo:42046:1,2002-07-05T05:39:00Z,27.8903,-94.0367,4.0,6.722157392,127.2623119,8.92,'11111222,11111222,11111222' 
TABS,ioos:station:wmo:42046:1,2002-07-05T07:39:00Z,27.8903,-94.0367,4.0,5.491684623,139.7271868,8.87,'11111222,11111222,11111222' 
TABS,ioos:station:wmo:42046:1,2002-07-05T08:39:00Z,27.8903,-94.0367,4.0,5.74624225,160.9031391,8.92,'11111222,11111222,11111222' 
TABS,ioos:station:wmo:42046:1,2002-07-05T09:39:00Z,27.8903,-94.0367,4.0,6.560099085,132.7146477,9.74,'11111222,11111222,11111222' 
TABS,ioos:station:wmo:42046:1,2002-07-05T10:39:00Z,27.8903,-94.0367,4.0,6.661268648,142.0121576,8.89,'11111222,11111222,11111222' 
TABS,ioos:station:wmo:42046:1,2002-07-05T11:09:00Z,27.8903,-94.0367,4.0,6.175993847,136.7717813,9.06,'11111222,11111222,11111222' 
TABS,ioos:station:wmo:42046:1,2002-07-05T12:39:00Z,27.8903,-94.0367,4.0,5.678485714,128.5655916,7.99,'11111222,11111222,11111222' 
TABS,ioos:station:wmo:42046:1,2002-07-05T13:09:00Z,27.8903,-94.0367,4.0,3.643542232,128.537345,7.81,'11111222,11111222,11111222' 
TABS,ioos:station:wmo:42046:1,2002-07-05T14:09:00Z,27.8903,-94.0367,4.0,3.447448332,189.5171559,6.54,'11111222,11111222,11111222' 
TABS,ioos:station:wmo:42046:1,2002-07-05T14:39:00Z,27.8903,-94.0367,4.0,2.992824753,182.4897576,6.24,'11111222,11111222,11111222' 
TABS,ioos:station:wmo:42046:1,2002-07-05T15:09:00Z,27.8903,-94.0367,4.0,2.238972979,107.9497819,6.09,'11111222,11111222,11111222' 
TABS,ioos:station:wmo:42046:1,2002-07-05T17:09:00Z,27.8903,-94.0367,4.0,3.182263345,87.83850465,6.14,'11111222,11111222,11111222' 
TABS,ioos:station:wmo:42046:1,2002-07-05T17:39:00Z,27.8903,-94.0367,4.0,4.512172426,91.77842876,6.33,'11111222,11111222,11111222' 
TABS,ioos:station:wmo:42046:1,2002-07-05T18:09:00Z,27.8903,-94.0367,4.0,3.870142116,85.85068509,5.32,'11111222,11111222,11111222' 
TABS,ioos:station:wmo:42046:1,2002-07-05T19:09:00Z,27.8903,-94.0367,4.0,2.918218635,78.53565287,5.62,'11111222,11111222,11111222' 
TABS,ioos:station:wmo:42046:1,2002-07-05T19:39:00Z,27.8903,-94.0367,4.0,3.816621543,96.77163333,5.74,'11111222,11111222,11111222' 
TABS,ioos:station:wmo:42046:1,2002-07-05T20:39:00Z,27.8903,-94.0367,4.0,3.546166945,96.96509743,5.85,'11111222,11111222,11111222' 
TABS,ioos:station:wmo:42046:1,2002-07-05T21:09:00Z,27.8903,-94.0367,4.0,3.73523761,80.13379521,6.25,'11111222,11111222,11111222' 
TABS,ioos:station:wmo:42046:1,2002-07-05T21:39:00Z,27.8903,-94.0367,4.0,2.832401808,69.32520267,5.95,'11111222,11111222,11111222' 
TABS,ioos:station:wmo:42046:1,2002-07-05T22:09:00Z,27.8903,-94.0367,4.0,3.717754699,93.70172045,6.45,'11111222,11111222,11111222' 
TABS,ioos:station:wmo:42046:1,2002-07-05T22:39:00Z,27.8903,-94.0367,4.0,4.452201703,91.8023862,7.47,'11111222,11111222,11111222' 
TABS,ioos:station:wmo:42046:1,2002-07-06T00:09:00Z,27.8903,-94.0367,4.0,4.182977408,140.3350337,6.27,'11111222,11111222,11111222' 
TABS,ioos:station:wmo:42046:1,2002-07-06T01:39:00Z,27.8903,-94.0367,4.0,5.909246991,112.4859815,7.63,'11111222,11111222,11111222' 
TABS,ioos:station:wmo:42046:1,2002-07-06T02:39:00Z,27.8903,-94.0367,4.0,5.961216319,111.1413916,7.6,'11111222,11111222,11111222' 
TABS,ioos:station:wmo:42046:1,2002-07-06T03:39:00Z,27.8903,-94.0367,4.0,5.742560405,135.9880738,7.41,'11111222,11111222,11111222' 
TABS,ioos:station:wmo:42046:1,2002-07-06T05:09:00Z,27.8903,-94.0367,4.0,5.265216045,147.4873638,7.12,'11111222,11111222,11111222' 
TABS,ioos:station:wmo:42046:1,2002-07-06T06:09:00Z,27.8903,-94.0367,4.0,4.361387394,210.4457019,6.26,'11111222,11111222,11111222' 
TABS,ioos:station:wmo:42046:1,2002-07-06T07:09:00Z,27.8903,-94.0367,4.0,4.094142157,212.8362623,5.92,'11111222,11111222,11111222' 
TABS,ioos:station:wmo:42046:1,2002-07-06T08:39:00Z,27.8903,-94.0367,4.0,4.118507011,220.9635585,5.81,'11111222,11111222,11111222' 
TABS,ioos:station:wmo:42046:1,2002-07-06T11:39:00Z,27.8903,-94.0367,4.0,4.734479908,265.5177701,6.76,'11111222,11111222,11111222' 
TABS,ioos:station:wmo:42046:1,2002-07-06T14:39:00Z,27.8903,-94.0367,4.0,4.507992902,279.9637809,6.23,'11111222,11111222,11111222' 
TABS,ioos:station:wmo:42046:1,2002-07-06T16:39:00Z,27.8903,-94.0367,4.0,5.778373474,318.0863768,7.52,'11111222,11111222,11111222' 
TABS,ioos:station:wmo:42046:1,2002-07-06T18:39:00Z,27.8903,-94.0367,4.0,5.985716331,349.2155169,8.09,'11111222,11111222,11111222' 
TABS,ioos:station:wmo:42046:1,2002-07-06T19:09:00Z,27.8903,-94.0367,4.0,5.913459225,341.5648838,7.89,'11111222,11111222,11111222' 
TABS,ioos:station:wmo:42046:1,2002-07-06T20:09:00Z,27.8903,-94.0367,4.0,5.684258967,2.217878332,7.36,'11111222,11111222,11111222' 
TABS,ioos:station:wmo:42046:1,2002-07-06T20:39:00Z,27.8903,-94.0367,4.0,6.606814664,13.65740011,8.35,'11111222,11111222,11111222' 
TABS,ioos:station:wmo:42046:1,2002-07-06T21:09:00Z,27.8903,-94.0367,4.0,6.364471698,13.44646976,8.63,'11111222,11111222,11111222' 
TABS,ioos:station:wmo:42046:1,2002-07-06T21:39:00Z,27.8903,-94.0367,4.0,5.685015391,6.362225841,7.43,'11111222,11111222,11111222' 
TABS,ioos:station:wmo:42046:1,2002-07-06T22:09:00Z,27.8903,-94.0367,4.0,5.585060429,8.753730922,7.03,'11111222,11111222,11111222' 
TABS,ioos:station:wmo:42046:1,2002-07-06T22:39:00Z,27.8903,-94.0367,4.0,4.936415704,354.0697758,6.24,'11111222,11111222,11111222' 
TABS,ioos:station:wmo:42046:1,2002-07-06T23:09:00Z,27.8903,-94.0367,4.0,3.827923719,328.6767288,5.54,'11111222,11111222,11111222' 
TABS,ioos:station:wmo:42046:1,2002-07-07T00:09:00Z,27.8903,-94.0367,4.0,4.411280993,319.4126778,5.92,'11111222,11111222,11111222' 
TABS,ioos:station:wmo:42046:1,2002-07-07T01:09:00Z,27.8903,-94.0367,4.0,4.229952718,327.061176,5.77,'11111222,11111222,11111222' 
TABS,ioos:station:wmo:42046:1,2002-07-07T01:39:00Z,27.8903,-94.0367,4.0,3.579287639,35.33269134,5.12,'11111222,11111222,11111222' 
TABS,ioos:station:wmo:42046:1,2002-07-07T03:09:00Z,27.8903,-94.0367,4.0,3.946061327,53.44920281,5.27,'11111222,11111222,11111222' 
TABS,ioos:station:wmo:42046:1,2002-07-07T04:39:00Z,27.8903,-94.0367,4.0,4.12801405,68.09512461,5.45,'11111222,11111222,11111222' 
TABS,ioos:station:wmo:42046:1,2002-07-07T07:09:00Z,27.8903,-94.0367,4.0,2.263846285,80.07958932,3.32,'11111222,11111222,11111222' 
TABS,ioos:station:wmo:42046:1,2002-07-07T07:39:00Z,27.8903,-94.0367,4.0,2.211628359,73.44925787,3.26,'11111222,11111222,11111222' 
TABS,ioos:station:wmo:42046:1,2002-07-07T08:09:00Z,27.8903,-94.0367,4.0,2.64796148,64.49908256,3.81,'11111222,11111222,11111222' 
TABS,ioos:station:wmo:42046:1,2002-07-07T08:39:00Z,27.8903,-94.0367,4.0,2.64319882,60.03967442,3.77,'11111222,11111222,11111222' 
TABS,ioos:station:wmo:42046:1,2002-07-07T10:09:00Z,27.8903,-94.0367,4.0,4.012181452,339.5775043,5.28,'11111222,11111222,11111222' 
TABS,ioos:station:wmo:42046:1,2002-07-07T10:39:00Z,27.8903,-94.0367,4.0,4.320046296,337.1147218,5.76,'11111222,11111222,11111222' 
TABS,ioos:station:wmo:42046:1,2002-07-07T11:09:00Z,27.8903,-94.0367,4.0,5.439016455,349.6195906,6.64,'11111222,11111222,11111222' 
TABS,ioos:station:wmo:42046:1,2002-07-07T12:09:00Z,27.8903,-94.0367,4.0,6.934298811,355.2018502,9.08,'11111222,11111222,11111222' 
TABS,ioos:station:wmo:42046:1,2002-07-07T12:39:00Z,27.8903,-94.0367,4.0,7.120849668,8.641935526,9.77,'11111222,11111222,11111222' 
TABS,ioos:station:wmo:42046:1,2002-07-07T14:09:00Z,27.8903,-94.0367,4.0,5.939840065,20.60094581,8.65,'11111222,11111222,11111222' 
TABS,ioos:station:wmo:42046:1,2002-07-07T15:09:00Z,27.8903,-94.0367,4.0,5.222451532,38.62523967,8.24,'11111222,11111222,11111222' 
TABS,ioos:station:wmo:42046:1,2002-07-07T16:09:00Z,27.8903,-94.0367,4.0,4.77117386,38.95958004,7.26,'11111222,11111222,11111222' 
TABS,ioos:station:wmo:42046:1,2002-07-07T18:39:00Z,27.8903,-94.0367,4.0,6.378165881,44.74560329,9.05,'11111222,11111222,11111222' 
TABS,ioos:station:wmo:42046:1,2002-07-07T20:09:00Z,27.8903,-94.0367,4.0,6.456198572,45.56446428,9.6,'11111222,11111222,11111222' 
TABS,ioos:station:wmo:42046:1,2002-07-07T21:09:00Z,27.8903,-94.0367,4.0,6.685207551,48.15261395,9.46,'11111222,11111222,11111222' 
TABS,ioos:station:wmo:42046:1,2002-07-07T21:39:00Z,27.8903,-94.0367,4.0,6.866185258,45.41272506,9.69,'11111222,11111222,11111222' 
TABS,ioos:station:wmo:42046:1,2002-07-07T22:39:00Z,27.8903,-94.0367,4.0,7.751883642,47.77073561,10.83,'11111222,11111222,11111222' 
TABS,ioos:station:wmo:42046:1,2002-07-08T00:09:00Z,27.8903,-94.0367,4.0,7.308200873,56.15738215,9.85,'11111222,11111222,11111222' 
TABS,ioos:station:wmo:42046:1,2002-07-08T02:09:00Z,27.8903,-94.0367,4.0,6.801036686,56.94047122,10.07,'11111222,11111222,11111222' 
TABS,ioos:station:wmo:42046:1,2002-07-08T03:09:00Z,27.8903,-94.0367,4.0,6.59339063,93.65263516,10.14,'11111222,11111222,11111222' 
TABS,ioos:station:wmo:42046:1,2002-07-08T06:09:00Z,27.8903,-94.0367,4.0,7.16774023,58.17220693,9.66,'11111222,11111222,11111222' 
TABS,ioos:station:wmo:42046:1,2002-07-08T06:39:00Z,27.8903,-94.0367,4.0,7.352196951,63.50429272,10.43,'11111222,11111222,11111222' 
TABS,ioos:station:wmo:42046:1,2002-07-08T07:09:00Z,27.8903,-94.0367,4.0,7.439603484,60.2643198,10.26,'11111222,11111222,11111222' 
TABS,ioos:station:wmo:42046:1,2002-07-08T07:39:00Z,27.8903,-94.0367,4.0,7.441135666,47.88655306,10.03,'11111222,11111222,11111222' 
TABS,ioos:station:wmo:42046:1,2002-07-08T08:39:00Z,27.8903,-94.0367,4.0,6.414810987,52.21868826,10.26,'11111222,11111222,11111222' 
TABS,ioos:station:wmo:42046:1,2002-07-08T11:09:00Z,27.8903,-94.0367,4.0,6.593640876,32.67750789,10.15,'11111222,11111222,11111222' 
TABS,ioos:station:wmo:42046:1,2002-07-08T13:09:00Z,27.8903,-94.0367,4.0,8.081911903,23.17039942,10.51,'11111222,11111222,11111222' 
TABS,ioos:station:wmo:42046:1,2002-07-08T14:09:00Z,27.8903,-94.0367,4.0,8.598139334,29.54623285,11.98,'11111222,11111222,11111222' 
TABS,ioos:station:wmo:42046:1,2002-07-08T15:09:00Z,27.8903,-94.0367,4.0,9.022782276,34.34143751,12.72,'11111222,11111222,11111222' 
TABS,ioos:station:wmo:42046:1,2002-07-08T15:39:00Z,27.8903,-94.0367,4.0,8.768722826,30.95226779,12.19,'11111222,11111222,11111222' 
TABS,ioos:station:wmo:42046:1,2002-07-08T16:09:00Z,27.8903,-94.0367,4.0,9.175625319,39.20562807,13.9,'11111222,11111222,11111222' 
TABS,ioos:station:wmo:42046:1,2002-07-08T16:39:00Z,27.8903,-94.0367,4.0,9.223952515,40.82332542,12.81,'11111222,11111222,11111222' 
TABS,ioos:station:wmo:42046:1,2002-07-08T17:09:00Z,27.8903,-94.0367,4.0,8.026418878,53.71512518,12.26,'11111222,11111222,11111222' 
TABS,ioos:station:wmo:42046:1,2002-07-08T17:39:00Z,27.8903,-94.0367,4.0,8.24764815,47.80075688,12.99,'11111222,11111222,11111222' 
TABS,ioos:station:wmo:42046:1,2002-07-08T19:39:00Z,27.8903,-94.0367,4.0,9.031998671,47.60224043,12.85,'11111222,11111222,11111222' 
TABS,ioos:station:wmo:42046:1,2002-07-08T20:09:00Z,27.8903,-94.0367,4.0,9.029778513,45.13428621,13.24,'11111222,11111222,11111222' 
TABS,ioos:station:wmo:42046:1,2002-07-08T21:09:00Z,27.8903,-94.0367,4.0,8.848598759,32.77384443,13.22,'11111222,11111222,11111222' 
TABS,ioos:station:wmo:42046:1,2002-07-08T22:39:00Z,27.8903,-94.0367,4.0,8.292948812,81.88903723,12.6,'11111222,11111222,11111222' 
TABS,ioos:station:wmo:42046:1,2002-07-08T23:09:00Z,27.8903,-94.0367,4.0,8.858374569,50.95601039,12.6,'11111222,11111222,11111222' 
TABS,ioos:station:wmo:42046:1,2002-07-09T02:39:00Z,27.8903,-94.0367,4.0,9.53565939,74.30182327,13.62,'11111222,11111222,11111222' 
TABS,ioos:station:wmo:42046:1,2002-07-09T04:39:00Z,27.8903,-94.0367,4.0,9.32122846,81.54785766,13.46,'11111222,11111222,11111222' 
TABS,ioos:station:wmo:42046:1,2002-07-09T05:39:00Z,27.8903,-94.0367,4.0,8.473688689,88.30893517,12.22,'11111222,11111222,11111222' 
TABS,ioos:station:wmo:42046:1,2002-07-09T06:09:00Z,27.8903,-94.0367,4.0,9.197918243,104.8676019,13.43,'11111222,11111222,11111222' 
TABS,ioos:station:wmo:42046:1,2002-07-09T07:09:00Z,27.8903,-94.0367,4.0,9.10947858,110.902411,13.77,'11111222,11111222,11111222' 
TABS,ioos:station:wmo:42046:1,2002-07-09T07:39:00Z,27.8903,-94.0367,4.0,8.426131971,129.9451982,13.35,'11111222,11111222,11111222' 
TABS,ioos:station:wmo:42046:1,2002-07-09T13:09:00Z,27.8903,-94.0367,4.0,6.70197732,100.48876,10.5,'11111222,11111222,11111222' 
TABS,ioos:station:wmo:42046:1,2002-07-09T15:39:00Z,27.8903,-94.0367,4.0,6.432915358,280.7509419,10.21,'11111222,11111222,11111222' 
TABS,ioos:station:wmo:42046:1,2002-07-10T08:39:00Z,27.8903,-94.0367,4.0,2.816025568,96.11591018,4.62,'11111222,11111222,11111222' 
TABS,ioos:station:wmo:42046:1,2002-07-10T10:39:00Z,27.8903,-94.0367,4.0,2.846840354,97.87434064,4.19,'11111222,11111222,11111222' 
TABS,ioos:station:wmo:42046:1,2002-07-10T11:39:00Z,27.8903,-94.0367,4.0,3.534543818,74.74449605,4.82,'11111222,11111222,11111222' 
TABS,ioos:station:wmo:42046:1,2002-07-10T12:09:00Z,27.8903,-94.0367,4.0,4.00181209,73.14952406,5.39,'11111222,11111222,11111222' 
TABS,ioos:station:wmo:42046:1,2002-07-10T12:39:00Z,27.8903,-94.0367,4.0,4.177379561,71.43455479,5.72,'11111222,11111222,11111222' 
TABS,ioos:station:wmo:42046:1,2002-07-10T14:09:00Z,27.8903,-94.0367,4.0,1.513803158,344.6783153,2.72,'11111222,11111222,11111222' 
TABS,ioos:station:wmo:42046:1,2002-07-10T14:39:00Z,27.8903,-94.0367,4.0,1.984363878,351.0121733,3.43,'11111222,11111222,11111222' 
TABS,ioos:station:wmo:42046:1,2002-07-10T16:09:00Z,27.8903,-94.0367,4.0,2.435261793,3.766904651,3.85,'11111222,11111222,11111222' 
TABS,ioos:station:wmo:42046:1,2002-07-10T17:09:00Z,27.8903,-94.0367,4.0,2.882308103,22.65018373,4.34,'11111222,11111222,11111222' 
TABS,ioos:station:wmo:42046:1,2002-07-10T19:09:00Z,27.8903,-94.0367,4.0,2.3157936,6.695156662,3.67,'11111222,11111222,11111222' 
TABS,ioos:station:wmo:42046:1,2002-07-10T19:39:00Z,27.8903,-94.0367,4.0,2.464487776,16.74353078,4.09,'11111222,11111222,11111222' 
TABS,ioos:station:wmo:42046:1,2002-07-10T20:39:00Z,27.8903,-94.0367,4.0,4.060997414,29.34210337,5.49,'11111222,11111222,11111222' 
TABS,ioos:station:wmo:42046:1,2002-07-10T21:09:00Z,27.8903,-94.0367,4.0,3.777194726,5.468871722,5.7,'11111222,11111222,11111222' 
TABS,ioos:station:wmo:42046:1,2002-07-10T21:39:00Z,27.8903,-94.0367,4.0,3.649287602,26.35413379,5.1,'11111222,11111222,11111222' 
TABS,ioos:station:wmo:42046:1,2002-07-10T22:09:00Z,27.8903,-94.0367,4.0,3.775301312,356.9630794,5.26,'11111222,11111222,11111222' 
TABS,ioos:station:wmo:42046:1,2002-07-10T23:39:00Z,27.8903,-94.0367,4.0,3.927467377,5.405530915,5.71,'11111222,11111222,11111222' 
TABS,ioos:station:wmo:42046:1,2002-07-11T00:09:00Z,27.8903,-94.0367,4.0,4.663475099,2.211826371,6.63,'11111222,11111222,11111222' 
TABS,ioos:station:wmo:42046:1,2002-07-11T03:09:00Z,27.8903,-94.0367,4.0,2.597248544,290.0396015,3.52,'11111222,11111222,11111222' 
TABS,ioos:station:wmo:42046:1,2002-07-11T03:39:00Z,27.8903,-94.0367,4.0,3.121441974,283.9026546,4.16,'11111222,11111222,11111222' 
TABS,ioos:station:wmo:42046:1,2002-07-11T04:09:00Z,27.8903,-94.0367,4.0,3.112073264,276.8281337,4.06,'11111222,11111222,11111222' 
TABS,ioos:station:wmo:42046:1,2002-07-11T06:39:00Z,27.8903,-94.0367,4.0,2.486523678,230.5485585,3.85,'11111222,11111222,11111222' 
TABS,ioos:station:wmo:42046:1,2002-07-11T07:09:00Z,27.8903,-94.0367,4.0,1.949410167,191.5406812,3.52,'11111222,11111222,11111222' 
TABS,ioos:station:wmo:42046:1,2002-07-11T07:39:00Z,27.8903,-94.0367,4.0,2.50217905,210.7675429,4.18,'11111222,11111222,11111222' 
TABS,ioos:station:wmo:42046:1,2002-07-11T10:09:00Z,27.8903,-94.0367,4.0,2.21081433,268.4448441,3.56,'11111222,11111222,11111222' 
TABS,ioos:station:wmo:42046:1,2002-07-11T11:39:00Z,27.8903,-94.0367,4.0,4.468646327,339.2937256,6.57,'11111222,11111222,11111222' 
TABS,ioos:station:wmo:42046:1,2002-07-11T12:39:00Z,27.8903,-94.0367,4.0,4.852638458,358.1103092,6.43,'11111222,11111222,11111222' 